AFR16 LFPG-GMMN

Flight info

Callsign AFR16
Flight time 2h 35m
Altitude 41000
Route AGOPA DCT ARKIP DCT ARMAL DCT ARTAX DCT BEBIX DCT LMG DCT UVELI DCT OSMOB DCT ARVID DCT PPN DCT NOLSA DCT ALEPO DCT VASUM DCT BANEV DCT BAN DCT GOTOR DCT KAMPO DCT MONTO DCT MOLIN DCT VJF N10 LINTO UN10 BARIS UB11 TUSOR
Aircraft A359/H-SDE2E3GHIJ3J4J5LM1ORWXY/LB1D1

Departure

Time 2026-05-06 05:30
Airport Charles de Gaulle International Airport (LFPG)

Arrival

Time 2026-05-06 08:06
Airport Mohammed V International Airport (GMMN)
Time Latitude Longitude Altitude Speed Heading
2026-05-06 05:05 49.00152 2.57820 361 ft 0 kts 355°
2026-05-06 05:21 49.00146 2.57820 361 ft 3 kts 355°
2026-05-06 05:21 49.00126 2.57823 361 ft 3 kts 355°
2026-05-06 05:22 49.00107 2.57826 364 ft 2 kts 355°
2026-05-06 05:22 49.00089 2.57828 365 ft 3 kts
2026-05-06 05:22 49.00072 2.57823 364 ft 3 kts 43°
2026-05-06 05:22 49.00065 2.57804 368 ft 3 kts 85°
2026-05-06 05:23 49.00063 2.57773 363 ft 3 kts 85°
2026-05-06 05:23 49.00062 2.57754 366 ft 0 kts 85°
2026-05-06 05:25 49.00062 2.57756 361 ft 2 kts 85°
2026-05-06 05:25 49.00072 2.57930 365 ft 22 kts 85°
2026-05-06 05:25 49.00083 2.58138 365 ft 18 kts 85°
2026-05-06 05:26 49.00075 2.58288 363 ft 13 kts 129°
2026-05-06 05:26 49.00010 2.58265 369 ft 11 kts 252°
2026-05-06 05:26 49.00000 2.58128 366 ft 16 kts 265°
2026-05-06 05:26 48.99989 2.57894 367 ft 25 kts 266°
2026-05-06 05:27 48.99976 2.57620 366 ft 27 kts 265°
2026-05-06 05:27 48.99958 2.57334 368 ft 28 kts 265°
2026-05-06 05:27 48.99942 2.57030 366 ft 29 kts 265°
2026-05-06 05:27 48.99925 2.56712 365 ft 31 kts 265°
2026-05-06 05:28 48.99907 2.56381 362 ft 32 kts 266°
2026-05-06 05:28 48.99895 2.56129 360 ft 19 kts 265°
2026-05-06 05:28 48.99890 2.55933 366 ft 19 kts 272°
2026-05-06 05:28 48.99866 2.55811 366 ft 10 kts 209°
2026-05-06 05:29 48.99787 2.55807 366 ft 13 kts 180°
2026-05-06 05:29 48.99686 2.55816 367 ft 15 kts 175°
2026-05-06 05:29 48.99611 2.55876 365 ft 10 kts 116°
2026-05-06 05:29 48.99608 2.55956 360 ft 0 kts 86°
2026-05-06 05:30 48.99610 2.55999 360 ft 25 kts 86°
2026-05-06 05:30 48.99646 2.56677 362 ft 101 kts 85°
2026-05-06 05:30 48.99719 2.58088 376 ft 162 kts 85°
2026-05-06 05:30 48.99761 2.59796 1117 ft 159 kts 82°
2026-05-06 05:31 48.99833 2.61565 1725 ft 171 kts 79°
2026-05-06 05:31 48.99936 2.63307 2725 ft 158 kts 79°
2026-05-06 05:31 49.00072 2.65114 3039 ft 189 kts 79°
2026-05-06 05:31 49.00238 2.67277 3241 ft 222 kts 81°
2026-05-06 05:32 49.00389 2.69768 3624 ft 249 kts 82°
2026-05-06 05:32 49.00495 2.72522 4123 ft 271 kts 85°
2026-05-06 05:32 49.00544 2.75476 4816 ft 282 kts 87°
2026-05-06 05:32 49.00261 2.78368 6097 ft 276 kts 106°
2026-05-06 05:33 48.99276 2.80874 7145 ft 280 kts 132°
2026-05-06 05:33 48.97641 2.82515 8108 ft 285 kts 160°
2026-05-06 05:33 48.95687 2.82855 9188 ft 284 kts 187°
2026-05-06 05:33 48.93860 2.81819 10241 ft 283 kts 212°
2026-05-06 05:34 48.92237 2.80001 10794 ft 300 kts 229°
2026-05-06 05:34 48.91100 2.77266 11453 ft 313 kts 242°
2026-05-06 05:34 48.90053 2.74329 12340 ft 318 kts 242°
2026-05-06 05:34 48.88965 2.71396 13324 ft 321 kts 240°
2026-05-06 05:35 48.87824 2.68437 14110 ft 328 kts 239°
2026-05-06 05:35 48.86615 2.65440 14813 ft 335 kts 238°
2026-05-06 05:35 48.85350 2.62453 15634 ft 338 kts 237°
2026-05-06 05:35 48.84034 2.59471 16445 ft 342 kts 237°
2026-05-06 05:36 48.82678 2.56517 17182 ft 349 kts 235°
2026-05-06 05:36 48.81219 2.53478 17935 ft 356 kts 234°
2026-05-06 05:36 48.79563 2.50582 18381 ft 372 kts 224°
2026-05-06 05:36 48.77439 2.48311 18777 ft 387 kts 207°
2026-05-06 05:37 48.74899 2.46692 19354 ft 396 kts 200°
2026-05-06 05:37 48.72273 2.45467 19950 ft 404 kts 196°
2026-05-06 05:37 48.69526 2.44406 20573 ft 411 kts 194°
2026-05-06 05:37 48.66717 2.43401 21172 ft 418 kts 193°
2026-05-06 05:38 48.63876 2.42387 21902 ft 421 kts 193°
2026-05-06 05:38 48.61012 2.41336 22639 ft 425 kts 193°
2026-05-06 05:38 48.58125 2.40245 23334 ft 430 kts 193°
2026-05-06 05:38 48.55207 2.39118 23936 ft 434 kts 194°
2026-05-06 05:39 48.52270 2.37969 24551 ft 437 kts 194°
2026-05-06 05:39 48.49315 2.36807 25145 ft 440 kts 193°
2026-05-06 05:39 48.46339 2.35636 25747 ft 443 kts 193°
2026-05-06 05:39 48.43347 2.34461 26348 ft 447 kts 193°
2026-05-06 05:40 48.40327 2.33277 26954 ft 450 kts 193°
2026-05-06 05:40 48.37288 2.32088 27574 ft 453 kts 193°
2026-05-06 05:40 48.34226 2.30893 28117 ft 457 kts 193°
2026-05-06 05:40 48.31137 2.29690 28641 ft 461 kts 193°
2026-05-06 05:41 48.28017 2.28476 29168 ft 465 kts 193°
2026-05-06 05:41 48.24874 2.27255 29678 ft 469 kts 192°
2026-05-06 05:41 48.21703 2.26025 30151 ft 472 kts 193°
2026-05-06 05:41 48.18519 2.24791 30631 ft 474 kts 193°
2026-05-06 05:42 48.15321 2.23552 31122 ft 475 kts 193°
2026-05-06 05:42 48.12112 2.22311 31589 ft 477 kts 193°
2026-05-06 05:42 48.08896 2.21068 32019 ft 479 kts 193°
2026-05-06 05:42 48.05664 2.19821 32430 ft 481 kts 193°
2026-05-06 05:43 48.02419 2.18571 32868 ft 482 kts 193°
2026-05-06 05:43 47.99170 2.17321 33282 ft 483 kts 193°
2026-05-06 05:43 47.95921 2.16072 33861 ft 480 kts 193°
2026-05-06 05:43 47.92699 2.14835 34309 ft 478 kts 194°
2026-05-06 05:44 47.89472 2.13598 34614 ft 479 kts 194°
2026-05-06 05:44 47.86248 2.12364 34989 ft 478 kts 194°
2026-05-06 05:44 47.83021 2.11131 35342 ft 479 kts 194°
2026-05-06 05:44 47.79791 2.09898 35566 ft 480 kts 194°
2026-05-06 05:45 47.76549 2.08663 35863 ft 481 kts 194°
2026-05-06 05:45 47.73307 2.07428 36188 ft 481 kts 194°
2026-05-06 05:45 47.70059 2.06193 36446 ft 483 kts 194°
2026-05-06 05:45 47.66853 2.04982 36795 ft 482 kts 194°
2026-05-06 05:46 47.63556 2.04100 37129 ft 481 kts 186°
2026-05-06 05:46 47.60220 2.03814 37394 ft 482 kts 181°
2026-05-06 05:46 47.56858 2.03832 37668 ft 482 kts 179°
2026-05-06 05:46 47.53498 2.04004 37934 ft 483 kts 178°
2026-05-06 05:47 47.50139 2.04241 38188 ft 484 kts 178°
2026-05-06 05:47 47.46775 2.04491 38440 ft 485 kts 178°
2026-05-06 05:47 47.43403 2.04731 38665 ft 485 kts 178°
2026-05-06 05:47 47.40024 2.04954 38875 ft 485 kts 178°
2026-05-06 05:48 47.37794 2.05092 39010 ft 485 kts 178°
2026-05-06 05:48 47.34426 2.05074 39224 ft 483 kts 185°
2026-05-06 05:48 47.31093 2.04518 39429 ft 482 kts 189°
2026-05-06 05:48 47.27774 2.03776 39636 ft 482 kts 190°
2026-05-06 05:49 47.24468 2.02958 39835 ft 482 kts 191°
2026-05-06 05:49 47.21163 2.02105 40002 ft 483 kts 191°
2026-05-06 05:49 47.17849 2.01241 40164 ft 483 kts 191°
2026-05-06 05:49 47.14544 2.00385 40375 ft 482 kts 191°
2026-05-06 05:50 47.11243 1.99537 40576 ft 482 kts 191°
2026-05-06 05:50 47.07933 1.98695 40732 ft 482 kts 191°
2026-05-06 05:50 47.01305 1.97026 40840 ft 483 kts 191°
2026-05-06 05:51 46.94679 1.95367 40842 ft 483 kts 191°
2026-05-06 05:51 46.88051 1.93711 40845 ft 483 kts 191°
2026-05-06 05:52 46.81429 1.92060 40846 ft 483 kts 191°
2026-05-06 05:52 46.74844 1.90422 40851 ft 483 kts 191°
2026-05-06 05:53 46.68220 1.88778 40856 ft 483 kts 191°
2026-05-06 05:53 46.61594 1.87138 40856 ft 483 kts 191°
2026-05-06 05:54 46.54966 1.85501 40852 ft 483 kts 191°
2026-05-06 05:54 46.48339 1.83869 40856 ft 483 kts 191°
2026-05-06 05:55 46.41719 1.82243 40859 ft 482 kts 191°
2026-05-06 05:55 46.35105 1.80622 40859 ft 482 kts 191°
2026-05-06 05:56 46.28554 1.78602 40866 ft 480 kts 200°
2026-05-06 05:56 46.22630 1.74272 40873 ft 477 kts 217°
2026-05-06 05:57 46.17485 1.68214 40873 ft 477 kts 221°
2026-05-06 05:57 46.12494 1.61898 40869 ft 477 kts 222°
2026-05-06 05:58 46.07501 1.55589 40876 ft 477 kts 221°
2026-05-06 05:58 46.02476 1.49321 40876 ft 478 kts 221°
2026-05-06 05:59 45.97474 1.43026 40882 ft 478 kts 225°
2026-05-06 05:59 45.93411 1.35531 40883 ft 476 kts 240°
2026-05-06 06:00 45.90273 1.27153 40888 ft 476 kts 243°
2026-05-06 06:00 45.87292 1.18659 40884 ft 476 kts 243°
2026-05-06 06:01 45.84327 1.10231 40888 ft 477 kts 243°
2026-05-06 06:01 45.80769 1.02233 40886 ft 477 kts 230°
2026-05-06 06:02 45.75964 0.95679 40880 ft 478 kts 221°
2026-05-06 06:02 45.70861 0.89566 40877 ft 478 kts 220°
2026-05-06 06:03 45.65725 0.83526 40886 ft 478 kts 220°
2026-05-06 06:03 45.60597 0.77462 40887 ft 478 kts 220°
2026-05-06 06:04 45.55482 0.71393 40883 ft 479 kts 220°
2026-05-06 06:04 45.50356 0.65314 40890 ft 479 kts 220°
2026-05-06 06:05 45.45231 0.59252 40891 ft 479 kts 220°
2026-05-06 06:05 45.40101 0.53201 40895 ft 479 kts 220°
2026-05-06 06:06 45.35000 0.47200 40891 ft 479 kts 220°
2026-05-06 06:06 45.29866 0.41174 40896 ft 479 kts 220°
2026-05-06 06:07 45.24724 0.35154 40891 ft 479 kts 220°
2026-05-06 06:07 45.19581 0.29146 40888 ft 479 kts 220°
2026-05-06 06:08 45.14428 0.23143 40892 ft 479 kts 220°
2026-05-06 06:08 45.09278 0.17157 40895 ft 479 kts 220°
2026-05-06 06:09 45.04125 0.11180 40890 ft 479 kts 220°
2026-05-06 06:09 44.98970 0.05209 40886 ft 479 kts 220°
2026-05-06 06:10 44.93814 -0.00736 40887 ft 478 kts 220°
2026-05-06 06:10 44.88656 -0.06670 40900 ft 479 kts 220°
2026-05-06 06:11 44.83489 -0.12603 40899 ft 479 kts 220°
2026-05-06 06:11 44.78352 -0.18489 40899 ft 479 kts 220°
2026-05-06 06:12 44.73179 -0.24401 40906 ft 479 kts 220°
2026-05-06 06:12 44.68004 -0.30303 40890 ft 479 kts 220°
2026-05-06 06:13 44.62484 -0.35562 40886 ft 481 kts 211°
2026-05-06 06:13 44.56597 -0.40033 40903 ft 481 kts 209°
2026-05-06 06:14 44.50658 -0.44358 40912 ft 481 kts 209°
2026-05-06 06:14 44.44713 -0.48677 40911 ft 481 kts 209°
2026-05-06 06:15 44.38782 -0.53003 40900 ft 480 kts 209°
2026-05-06 06:15 44.32862 -0.57321 40905 ft 479 kts 209°
2026-05-06 06:16 44.26952 -0.61626 40908 ft 479 kts 209°
2026-05-06 06:16 44.21041 -0.65921 40915 ft 479 kts 209°
2026-05-06 06:17 44.15131 -0.70204 40922 ft 479 kts 209°
2026-05-06 06:17 44.09222 -0.74476 40927 ft 478 kts 209°
2026-05-06 06:18 44.03316 -0.78736 40932 ft 479 kts 209°
2026-05-06 06:18 43.97396 -0.82997 40933 ft 479 kts 209°
2026-05-06 06:19 43.91478 -0.87247 40933 ft 479 kts 209°
2026-05-06 06:19 43.85563 -0.91485 40934 ft 479 kts 209°
2026-05-06 06:20 43.79648 -0.95714 40960 ft 478 kts 210°
2026-05-06 06:20 43.73735 -0.99932 40965 ft 478 kts 210°
2026-05-06 06:21 43.67824 -1.04139 40966 ft 478 kts 209°
2026-05-06 06:21 43.61958 -1.08304 40958 ft 478 kts 210°
2026-05-06 06:22 43.56047 -1.12493 40958 ft 477 kts 210°
2026-05-06 06:22 43.50144 -1.16666 40963 ft 477 kts 210°
2026-05-06 06:23 43.44234 -1.20836 40962 ft 477 kts 210°
2026-05-06 06:23 43.38321 -1.24997 40967 ft 477 kts 210°
2026-05-06 06:24 43.32415 -1.29144 40968 ft 476 kts 210°
2026-05-06 06:24 43.26512 -1.33283 40974 ft 476 kts 210°
2026-05-06 06:25 43.20611 -1.37409 40967 ft 476 kts 210°
2026-05-06 06:26 43.11752 -1.43585 40994 ft 476 kts 210°
2026-05-06 06:26 43.05857 -1.47686 40995 ft 476 kts 210°
2026-05-06 06:27 42.99957 -1.51794 40988 ft 476 kts 210°
2026-05-06 06:27 42.94067 -1.55887 41003 ft 475 kts 210°
2026-05-06 06:28 42.88170 -1.59977 40995 ft 475 kts 210°
2026-05-06 06:28 42.82276 -1.64054 40993 ft 475 kts 210°
2026-05-06 06:29 42.76384 -1.68121 40993 ft 475 kts 210°
2026-05-06 06:29 42.70487 -1.72178 40994 ft 475 kts 210°
2026-05-06 06:30 42.64560 -1.76167 40996 ft 475 kts 209°
2026-05-06 06:30 42.58630 -1.80127 40996 ft 475 kts 209°
2026-05-06 06:31 42.52744 -1.84063 41009 ft 474 kts 209°
2026-05-06 06:31 42.46830 -1.88017 41016 ft 474 kts 209°
2026-05-06 06:32 42.40915 -1.91968 41018 ft 474 kts 209°
2026-05-06 06:32 42.34999 -1.95909 41015 ft 473 kts 209°
2026-05-06 06:33 42.29094 -1.99844 41014 ft 473 kts 209°
2026-05-06 06:33 42.23194 -2.03770 41014 ft 473 kts 209°
2026-05-06 06:34 42.17288 -2.07673 41015 ft 473 kts 209°
2026-05-06 06:34 42.11392 -2.11558 41019 ft 471 kts 209°
2026-05-06 06:35 42.05544 -2.15409 41018 ft 471 kts 209°
2026-05-06 06:35 41.99626 -2.19301 41028 ft 470 kts 209°
2026-05-06 06:36 41.93785 -2.23134 41021 ft 470 kts 209°
2026-05-06 06:36 41.87917 -2.26976 41029 ft 468 kts 209°
2026-05-06 06:37 41.82060 -2.30803 41034 ft 469 kts 209°
2026-05-06 06:37 41.76198 -2.34627 41032 ft 469 kts 209°
2026-05-06 06:38 41.71311 -2.37807 41028 ft 469 kts 209°
2026-05-06 06:38 41.65446 -2.41617 41031 ft 468 kts 209°
2026-05-06 06:39 41.59583 -2.45419 41030 ft 468 kts 209°
2026-05-06 06:39 41.53719 -2.49214 41026 ft 468 kts 209°
2026-05-06 06:40 41.47858 -2.52999 41023 ft 467 kts 209°
2026-05-06 06:40 41.42006 -2.56770 41025 ft 467 kts 209°
2026-05-06 06:41 41.36157 -2.60532 41023 ft 467 kts 209°
2026-05-06 06:41 41.30513 -2.64728 41006 ft 463 kts 217°
2026-05-06 06:42 41.25192 -2.69513 41017 ft 461 kts 218°
2026-05-06 06:42 41.19927 -2.74381 41014 ft 461 kts 218°
2026-05-06 06:43 41.14658 -2.79248 41011 ft 461 kts 218°
2026-05-06 06:43 41.09384 -2.84091 40999 ft 461 kts 218°
2026-05-06 06:44 41.04107 -2.88916 41006 ft 460 kts 218°
2026-05-06 06:44 40.98835 -2.93726 41001 ft 460 kts 218°
2026-05-06 06:45 40.93556 -2.98532 41001 ft 460 kts 218°
2026-05-06 06:45 40.88288 -3.03321 41001 ft 460 kts 218°
2026-05-06 06:46 40.83047 -3.08076 40997 ft 460 kts 218°
2026-05-06 06:46 40.77772 -3.12851 40997 ft 460 kts 218°
2026-05-06 06:47 40.72497 -3.17619 40996 ft 460 kts 218°
2026-05-06 06:47 40.67220 -3.22378 40990 ft 460 kts 218°
2026-05-06 06:48 40.61941 -3.27129 40991 ft 460 kts 218°
2026-05-06 06:48 40.56658 -3.31876 40991 ft 460 kts 218°
2026-05-06 06:49 40.51375 -3.36612 40993 ft 460 kts 218°
2026-05-06 06:49 40.46090 -3.41342 40993 ft 460 kts 218°
2026-05-06 06:50 40.40798 -3.46068 40982 ft 460 kts 218°
2026-05-06 06:50 40.35508 -3.50784 40988 ft 459 kts 218°
2026-05-06 06:51 40.30223 -3.55484 40989 ft 459 kts 217°
2026-05-06 06:51 40.24939 -3.60177 40992 ft 459 kts 217°
2026-05-06 06:52 40.19645 -3.64869 40993 ft 459 kts 217°
2026-05-06 06:52 40.14355 -3.69548 40998 ft 459 kts 217°
2026-05-06 06:53 40.09108 -3.74182 40976 ft 458 kts 217°
2026-05-06 06:53 40.03824 -3.78838 40964 ft 458 kts 217°
2026-05-06 06:54 39.98535 -3.83489 40969 ft 459 kts 217°
2026-05-06 06:54 39.93246 -3.88131 40971 ft 458 kts 217°
2026-05-06 06:55 39.87967 -3.92756 40971 ft 457 kts 217°
2026-05-06 06:55 39.82689 -3.97372 40971 ft 457 kts 217°
2026-05-06 06:56 39.77409 -4.01981 40971 ft 457 kts 217°
2026-05-06 06:56 39.72130 -4.06581 40964 ft 457 kts 217°
2026-05-06 06:57 39.66858 -4.11165 40971 ft 456 kts 217°
2026-05-06 06:57 39.61586 -4.15741 40970 ft 456 kts 217°
2026-05-06 06:58 39.56313 -4.20309 40971 ft 456 kts 217°
2026-05-06 06:58 39.51036 -4.24872 40970 ft 456 kts 217°
2026-05-06 06:59 39.45797 -4.29394 40975 ft 455 kts 217°
2026-05-06 06:59 39.40537 -4.33926 40974 ft 454 kts 217°
2026-05-06 07:00 39.35270 -4.38456 40977 ft 455 kts 217°
2026-05-06 07:00 39.29970 -4.43006 40976 ft 454 kts 217°
2026-05-06 07:01 39.24742 -4.47485 40971 ft 454 kts 217°
2026-05-06 07:01 39.19481 -4.51985 40974 ft 454 kts 217°
2026-05-06 07:02 39.14219 -4.56478 40974 ft 454 kts 217°
2026-05-06 07:02 39.08953 -4.60966 40973 ft 454 kts 217°
2026-05-06 07:03 39.03689 -4.65444 40973 ft 454 kts 217°
2026-05-06 07:03 38.98145 -4.69396 40973 ft 459 kts 207°
2026-05-06 07:04 38.92203 -4.72440 40974 ft 460 kts 205°
2026-05-06 07:04 38.86196 -4.75325 40974 ft 461 kts 205°
2026-05-06 07:05 38.80191 -4.78194 40974 ft 461 kts 205°
2026-05-06 07:05 38.74193 -4.81078 40975 ft 460 kts 205°
2026-05-06 07:06 38.68203 -4.83964 40974 ft 460 kts 205°
2026-05-06 07:06 38.62215 -4.86847 40969 ft 460 kts 205°
2026-05-06 07:07 38.56221 -4.89729 40974 ft 460 kts 205°
2026-05-06 07:07 38.50236 -4.92598 40970 ft 459 kts 205°
2026-05-06 07:08 38.44264 -4.95456 40977 ft 459 kts 205°
2026-05-06 07:08 38.38283 -4.98314 40973 ft 458 kts 205°
2026-05-06 07:09 38.32352 -5.01143 40973 ft 458 kts 205°
2026-05-06 07:09 38.26377 -5.03988 40974 ft 458 kts 205°
2026-05-06 07:10 38.20402 -5.06827 40970 ft 459 kts 205°
2026-05-06 07:10 38.14428 -5.09661 40968 ft 458 kts 205°
2026-05-06 07:11 38.08447 -5.12494 40972 ft 458 kts 205°
2026-05-06 07:11 38.02477 -5.15318 40970 ft 457 kts 205°
2026-05-06 07:12 37.96515 -5.18132 40965 ft 457 kts 205°
2026-05-06 07:12 37.90553 -5.20941 40965 ft 457 kts 205°
2026-05-06 07:13 37.84597 -5.23756 40962 ft 457 kts 205°
2026-05-06 07:13 37.78638 -5.26547 40957 ft 456 kts 205°
2026-05-06 07:14 37.72691 -5.29327 40958 ft 455 kts 205°
2026-05-06 07:14 37.66752 -5.32105 40959 ft 455 kts 205°
2026-05-06 07:15 37.60814 -5.34880 40961 ft 456 kts 205°
2026-05-06 07:15 37.54867 -5.37653 40960 ft 455 kts 205°
2026-05-06 07:16 37.48972 -5.40397 40959 ft 454 kts 205°
2026-05-06 07:16 37.43039 -5.43154 40962 ft 454 kts 205°
2026-05-06 07:17 37.37106 -5.45907 40954 ft 454 kts 205°
2026-05-06 07:17 37.31179 -5.48652 40958 ft 454 kts 205°
2026-05-06 07:18 37.25247 -5.51394 40966 ft 454 kts 205°
2026-05-06 07:18 37.19327 -5.54128 40967 ft 454 kts 205°
2026-05-06 07:19 37.13400 -5.56859 40965 ft 453 kts 205°
2026-05-06 07:19 37.07480 -5.59583 40959 ft 453 kts 205°
2026-05-06 07:20 37.01561 -5.62301 40964 ft 453 kts 205°
2026-05-06 07:20 36.95645 -5.65014 40956 ft 452 kts 205°
2026-05-06 07:21 36.89737 -5.67719 40960 ft 453 kts 205°
2026-05-06 07:21 36.83824 -5.70422 40966 ft 452 kts 205°
2026-05-06 07:22 36.77916 -5.73118 40969 ft 452 kts 205°
2026-05-06 07:22 36.72000 -5.75813 40954 ft 452 kts 205°
2026-05-06 07:23 36.66125 -5.78484 40948 ft 452 kts 205°
2026-05-06 07:23 36.60213 -5.81169 40939 ft 452 kts 205°
2026-05-06 07:24 36.54307 -5.83845 40956 ft 451 kts 205°
2026-05-06 07:24 36.48413 -5.86512 40957 ft 451 kts 205°
2026-05-06 07:25 36.42512 -5.89178 40955 ft 451 kts 205°
2026-05-06 07:25 36.36617 -5.91838 40953 ft 451 kts 205°
2026-05-06 07:26 36.31714 -5.94047 40957 ft 451 kts 205°
2026-05-06 07:26 36.25763 -5.96511 40962 ft 455 kts 199°
2026-05-06 07:27 36.19400 -5.97322 40963 ft 466 kts 186°
2026-05-06 07:27 36.12896 -5.97091 40963 ft 469 kts 184°
2026-05-06 07:28 36.06392 -5.96692 40967 ft 469 kts 184°
2026-05-06 07:28 35.96632 -5.96130 40968 ft 468 kts 184°
2026-05-06 07:29 35.90131 -5.95790 40961 ft 468 kts 184°
2026-05-06 07:29 35.83628 -5.95232 40966 ft 474 kts 177°
2026-05-06 07:30 35.77164 -5.93320 40966 ft 479 kts 171°
2026-05-06 07:30 35.70669 -5.92035 40969 ft 468 kts 184°
2026-05-06 07:31 35.64174 -5.91792 40965 ft 466 kts 186°
2026-05-06 07:31 35.57694 -5.91752 40959 ft 465 kts 186°
2026-05-06 07:32 35.51219 -5.91737 40960 ft 465 kts 186°
2026-05-06 07:32 35.44754 -5.91702 40962 ft 465 kts 186°
2026-05-06 07:33 35.38325 -5.91663 40966 ft 465 kts 186°
2026-05-06 07:33 35.31831 -5.91813 40962 ft 463 kts 188°
2026-05-06 07:34 35.25448 -5.92041 40967 ft 462 kts 188°
2026-05-06 07:34 35.19024 -5.92252 40979 ft 462 kts 188°
2026-05-06 07:35 35.12586 -5.92439 40975 ft 462 kts 188°
2026-05-06 07:35 35.06167 -5.92615 40984 ft 461 kts 188°
2026-05-06 07:36 34.99763 -5.92789 40987 ft 460 kts 188°
2026-05-06 07:36 34.93463 -5.93501 40987 ft 449 kts 199°
2026-05-06 07:37 34.87749 -5.96084 40982 ft 436 kts 214°
2026-05-06 07:37 34.82889 -6.00357 40968 ft 430 kts 223°
2026-05-06 07:38 34.78284 -6.04958 40976 ft 428 kts 223°
2026-05-06 07:38 34.73679 -6.09536 40978 ft 427 kts 223°
2026-05-06 07:39 34.69064 -6.14106 40971 ft 429 kts 223°
2026-05-06 07:39 34.64430 -6.18681 40975 ft 429 kts 223°
2026-05-06 07:40 34.59797 -6.23249 40974 ft 429 kts 223°
2026-05-06 07:40 34.55164 -6.27810 40962 ft 428 kts 223°
2026-05-06 07:41 34.50406 -6.32109 40965 ft 429 kts 215°
2026-05-06 07:41 34.44838 -6.34927 40965 ft 439 kts 202°
2026-05-06 07:42 34.38959 -6.36979 40968 ft 440 kts 202°
2026-05-06 07:42 34.33078 -6.39024 40976 ft 440 kts 202°
2026-05-06 07:43 34.30139 -6.40051 40787 ft 436 kts 202°
2026-05-06 07:43 34.27257 -6.41053 40530 ft 428 kts 202°
2026-05-06 07:43 34.24398 -6.42054 39792 ft 429 kts 203°
2026-05-06 07:43 34.21529 -6.43060 39114 ft 430 kts 203°
2026-05-06 07:44 34.18663 -6.44063 38466 ft 428 kts 203°
2026-05-06 07:44 34.15801 -6.45064 37613 ft 428 kts 203°
2026-05-06 07:44 34.12927 -6.46071 36607 ft 433 kts 202°
2026-05-06 07:44 34.10020 -6.47089 35715 ft 436 kts 202°
2026-05-06 07:45 34.07100 -6.48108 34911 ft 437 kts 201°
2026-05-06 07:45 34.04206 -6.49117 34066 ft 440 kts 201°
2026-05-06 07:45 34.01256 -6.50146 33095 ft 442 kts 201°
2026-05-06 07:45 33.98372 -6.51402 32146 ft 439 kts 209°
2026-05-06 07:46 33.95768 -6.53267 31229 ft 435 kts 220°
2026-05-06 07:46 33.93490 -6.55674 30298 ft 436 kts 226°
2026-05-06 07:46 33.91311 -6.58236 29399 ft 438 kts 226°
2026-05-06 07:46 33.89153 -6.60791 28758 ft 433 kts 226°
2026-05-06 07:47 33.87010 -6.63316 28127 ft 429 kts 226°
2026-05-06 07:47 33.84890 -6.65809 27465 ft 425 kts 226°
2026-05-06 07:47 33.82778 -6.68285 26799 ft 422 kts 226°
2026-05-06 07:47 33.80676 -6.70746 26152 ft 420 kts 226°
2026-05-06 07:48 33.78588 -6.73189 25496 ft 418 kts 226°
2026-05-06 07:48 33.76513 -6.75613 24851 ft 415 kts 225°
2026-05-06 07:48 33.74454 -6.78018 24217 ft 412 kts 225°
2026-05-06 07:48 33.72407 -6.80405 23592 ft 410 kts 225°
2026-05-06 07:49 33.70368 -6.82782 22881 ft 407 kts 225°
2026-05-06 07:49 33.68340 -6.85143 22223 ft 403 kts 225°
2026-05-06 07:49 33.66325 -6.87452 21565 ft 400 kts 224°
2026-05-06 07:49 33.64072 -6.89398 20881 ft 400 kts 211°
2026-05-06 07:50 33.61538 -6.90673 20202 ft 401 kts 202°
2026-05-06 07:50 33.58890 -6.91724 19496 ft 400 kts 201°
2026-05-06 07:50 33.56244 -6.92749 18810 ft 399 kts 201°
2026-05-06 07:50 33.53603 -6.93778 18054 ft 399 kts 201°
2026-05-06 07:51 33.50968 -6.94812 17288 ft 397 kts 201°
2026-05-06 07:51 33.48358 -6.95839 16557 ft 394 kts 201°
2026-05-06 07:51 33.45757 -6.96863 15833 ft 392 kts 201°
2026-05-06 07:51 33.43176 -6.97880 15115 ft 389 kts 201°
2026-05-06 07:52 33.40613 -6.98890 14395 ft 387 kts 201°
2026-05-06 07:52 33.38063 -6.99895 13659 ft 385 kts 201°
2026-05-06 07:52 33.35526 -7.00893 12893 ft 382 kts 201°
2026-05-06 07:52 33.33010 -7.01883 12171 ft 378 kts 200°
2026-05-06 07:53 33.30532 -7.02859 11441 ft 373 kts 200°
2026-05-06 07:53 33.28078 -7.03824 10757 ft 369 kts 200°
2026-05-06 07:53 33.25688 -7.04761 10554 ft 351 kts 200°
2026-05-06 07:53 33.23429 -7.05646 10426 ft 333 kts 200°
2026-05-06 07:54 33.21295 -7.06507 10302 ft 315 kts 203°
2026-05-06 07:54 33.19457 -7.07761 10170 ft 296 kts 222°
2026-05-06 07:54 33.18218 -7.09611 10054 ft 279 kts 243°
2026-05-06 07:54 33.17618 -7.11752 9913 ft 268 kts 257°
2026-05-06 07:55 33.17318 -7.13607 9810 ft 274 kts 259°
2026-05-06 07:55 33.17052 -7.15400 9584 ft 275 kts 259°
2026-05-06 07:55 33.16718 -7.17642 9199 ft 273 kts 259°
2026-05-06 07:55 33.16381 -7.19866 8835 ft 273 kts 259°
2026-05-06 07:56 33.16039 -7.22093 8493 ft 272 kts 259°
2026-05-06 07:56 33.15696 -7.24312 8139 ft 273 kts 259°
2026-05-06 07:56 33.15350 -7.26538 7774 ft 272 kts 259°
2026-05-06 07:56 33.15009 -7.28751 7401 ft 270 kts 259°
2026-05-06 07:57 33.14666 -7.30948 7037 ft 269 kts 259°
2026-05-06 07:57 33.14325 -7.33112 6662 ft 268 kts 259°
2026-05-06 07:57 33.13978 -7.35318 6294 ft 266 kts 259°
2026-05-06 07:57 33.13638 -7.37483 5915 ft 265 kts 259°
2026-05-06 07:58 33.13298 -7.39647 5533 ft 265 kts 259°
2026-05-06 07:58 33.12958 -7.41809 5169 ft 265 kts 259°
2026-05-06 07:58 33.12619 -7.43956 4889 ft 259 kts 259°
2026-05-06 07:58 33.12296 -7.46007 4806 ft 244 kts 259°
2026-05-06 07:59 33.12031 -7.47927 4701 ft 231 kts 265°
2026-05-06 07:59 33.12276 -7.49750 4610 ft 218 kts 295°
2026-05-06 07:59 33.13240 -7.51049 4518 ft 206 kts 328°
2026-05-06 07:59 33.14524 -7.51673 4471 ft 193 kts 342°
2026-05-06 08:00 33.15772 -7.52090 4361 ft 180 kts 344°
2026-05-06 08:00 33.16946 -7.52472 4263 ft 169 kts 344°
2026-05-06 08:00 33.18045 -7.52833 4140 ft 158 kts 344°
2026-05-06 08:00 33.19067 -7.53168 3975 ft 151 kts 345°
2026-05-06 08:01 33.20068 -7.53500 3745 ft 145 kts 344°
2026-05-06 08:01 33.21011 -7.53824 3534 ft 136 kts 345°
2026-05-06 08:01 33.21908 -7.54131 3358 ft 133 kts 346°
2026-05-06 08:01 33.22797 -7.54434 3176 ft 132 kts 346°
2026-05-06 08:02 33.23684 -7.54737 3001 ft 133 kts 346°
2026-05-06 08:02 33.24570 -7.55040 2813 ft 131 kts 346°
2026-05-06 08:02 33.25449 -7.55341 2642 ft 131 kts 346°
2026-05-06 08:02 33.26332 -7.55637 2484 ft 132 kts 346°
2026-05-06 08:03 33.27214 -7.55933 2317 ft 131 kts 346°
2026-05-06 08:03 33.28093 -7.56233 2145 ft 131 kts 346°
2026-05-06 08:03 33.28970 -7.56540 1958 ft 130 kts 346°
2026-05-06 08:03 33.29838 -7.56835 1755 ft 130 kts 345°
2026-05-06 08:04 33.30702 -7.57140 1588 ft 130 kts 345°
2026-05-06 08:04 33.31571 -7.57438 1424 ft 131 kts 345°
2026-05-06 08:04 33.32447 -7.57738 1253 ft 132 kts 345°
2026-05-06 08:04 33.33331 -7.58045 1055 ft 132 kts 345°
2026-05-06 08:05 33.34222 -7.58352 880 ft 134 kts 345°
2026-05-06 08:05 33.35123 -7.58659 729 ft 136 kts 345°
2026-05-06 08:05 33.36025 -7.58968 660 ft 127 kts 345°
2026-05-06 08:05 33.36684 -7.59192 658 ft 70 kts 343°
2026-05-06 08:06 33.36998 -7.59297 656 ft 36 kts 344°
2026-05-06 08:06 33.37242 -7.59312 660 ft 35 kts
2026-05-06 08:06 33.37475 -7.59245 657 ft 34 kts 18°
2026-05-06 08:06 33.37696 -7.59159 656 ft 35 kts 17°
2026-05-06 08:07 33.37827 -7.59047 655 ft 15 kts 69°
2026-05-06 08:07 33.37859 -7.58920 655 ft 17 kts 73°